Location: Big Sandy Campground
(37.4666°N, 119.5821°W)
Time: 23:34:59
(UTC+00:00)

Cosmos 1125 Rocket - Pass Details

Date: 03 August 2024
Orbit: 756 x 776 km, 74.0° (Epoch: 08 September)

Event Time Altitude Azimuth Distance (km) Brightness Sun altitude
Rises 12:28:10 0° 334° (NNW) 3,228 6.8 -7.4°
Reaches altitude 10° 12:30:37 10° 329° (NNW) 2,296 6.0 -7.0°
Maximum altitude 12:35:33 45° 258° (WSW) 1,032 3.8 -6.1°
Drops below altitude 10° 12:40:26 10° 186° (S) 2,273 5.6 -5.2°
Sets 12:42:52 0° 180° (S) 3,193 6.4 -4.8°
